Regional Weather Roundup
Issued by NWS

Home | Current Version | Previous Version | Graphics & Text | Print | Product List | Glossary On
Versions: 1 2 3 4 5 6 7 8 9 10 11 12 13 14 15 16 17 18 19 20 21 22 23 24 25 26 27 28 29 30 31 32 33 34 35 36 37 38 39 40 41 42 43 44 45 46 47 48 49 50
000
ASUS43 KMKX 240720
RWRWI

WISCONSIN REGIONAL WEATHER ROUNDUP
NATIONAL WEATHER SERVICE MILWAUKEE/SULLIVAN WI
200 AM CDT THU JUL 24 2014

NOTE: "FAIR" INDICATES FEW OR NO CLOUDS BELOW 12,000 FEET WITH NO
SIGNIFICANT WEATHER AND/OR OBSTRUCTIONS TO VISIBILITY.

WIZ001-002-006>008-014>016-023>028-240800-
NORTHWEST WISCONSIN

CITY           SKY/WX    TMP DP  RH WIND       PRES   REMARKS
SUPERIOR ARPT  PTCLDY    52  52  99 CALM      30.18F
ASHLAND        PTCLDY    52  51  97 W3        30.19S
HAYWARD        CLEAR     52  49  89 CALM      30.19S
SIREN          MOCLDY    57  54  91 CALM      30.18R
RICE LAKE      MOCLDY    56  54  95 CALM      30.20R
LADYSMITH      CLEAR     53  50  89 E3        30.20F
EAU CLAIRE     CLEAR     58  55  90 CALM      30.17S
MENOMONIE      SUNNY     60  56  85 CALM      30.18S
NEW RICHMOND   CLOUDY    59  58  94 CALM      30.18S
OSCEOLA        CLEAR     60  58  95 CALM      30.20S
$$

WIZ003>005-009-010-017-018-240800-
NORTH CENTRAL WISCONSIN

CITY           SKY/WX    TMP DP  RH WIND       PRES   REMARKS
WOODRUFF       CLEAR     49  41  74 CALM      30.21S
RHINELANDER    FOG       48  48 100 CALM      30.22R VSB 3/4
EAGLE RIVER    CLEAR     46  46 100 CALM      30.20F
LAND O LAKES   PTCLDY    45  44  99 CALM      30.22S
PHILLIPS       CLEAR     50  49  99 CALM      30.20R
TOMAHAWK       CLEAR     46  45  96 CALM      30.21S
MEDFORD        CLEAR     52  50  93 NE5       30.19S
MERRILL        CLEAR     49  49  98 NE3       30.20S
$$

WIZ029-030-035-036-043>047-240800-
CENTRAL WISCONSIN

CITY           SKY/WX    TMP DP  RH WIND       PRES   REMARKS
WAUSAU         CLEAR     56  51  84 E5        30.18S
MOSINEE        PTCLDY    54  54 100 E6        30.20S
MARSHFIELD     CLEAR     59  54  83 E6        30.18S
STEVENS POINT  PTCLDY    55  51  85 CALM      30.19F
WAUPACA        PTCLDY    57  55  92 CALM      30.19S
WAUTOMA        MOCLDY    54  51  89 CALM      30.20S
WISC RAPIDS    CLEAR     59  52  77 S6        30.19S
CAMP DOUGLAS   CLEAR     52  52 100 SE3       30.16F
$$

WIZ011>013-019>022-031-037>040-048>050-240800-
NORTHEAST WISCONSIN

CITY           SKY/WX    TMP DP  RH WIND       PRES   REMARKS
ANTIGO         CLEAR     53  48  84 CALM      30.20S
STURGEON BAY   CLEAR     50  45  81 CALM      30.18S
GREEN BAY      CLOUDY    56  53  90 NW3       30.18S
MANITOWOC      CLEAR     53  51  93 CALM      30.18S
APPLETON       PTCLDY    61  45  55 E3        30.19S
CLINTONVILLE   CLOUDY    55  52  88 CALM      30.19S
OSHKOSH        CLEAR     54  50  86 CALM      30.17F
$$

WIZ032>034-041-042-053>061-240800-
SOUTHWEST WISCONSIN

CITY           SKY/WX    TMP DP  RH WIND       PRES   REMARKS
LA CROSSE      PTCLDY    64  59  83 E3        30.15S
SPARTA         CLEAR     53  51  94 CALM      30.17S
VIROQUA        FAIR      60  59  96 SE6       30.17S
BOSCOBEL       CLEAR     59  56  89 CALM      30.17R
PRAIRIE DU CHI PTCLDY    61  58  88 CALM      30.15S
PLATTEVILLE    FAIR      59  55  87 E7        30.19R
$$

WIZ056-057-062-063-064-067-068-240800-
SOUTH CENTRAL WISCONSIN

CITY           SKY/WX    TMP DP  RH WIND       PRES   REMARKS
BARABOO/DELLS  CLEAR     56  49  77 S3        30.18S
LONE ROCK      CLEAR     62  54  74 E5        30.18S
WATERTOWN      CLEAR     52  50  93 CALM      30.17S
MADISON        CLEAR     56  51  84 CALM      30.18S
MIDDLETON      FAIR      60  50  69 CALM      30.18F
MONROE         CLEAR     57  54  88 E3        30.18S
JANESVILLE     CLEAR     54  50  87 CALM      30.16F
$$

WIZ051-052-058>065-066-070>072-240800-
SOUTHEAST WISCONSIN

CITY           SKY/WX    TMP DP  RH WIND       PRES   REMARKS
MILWAUKEE      CLEAR     58  50  75 NW5       30.16S
WAUKESHA       CLEAR     50  46  87 CALM      30.18S
MILWAUKEE/TIMM CLEAR     54  46  76 CALM      30.18S
RACINE         CLEAR     57  54  89 NW6       30.17F
BURLINGTON     CLEAR     48  47  99 CALM      30.17S
KENOSHA        CLEAR     55  51  86 N6        30.16S
FOND DU LAC    PTCLDY    53  49  86 CALM      30.18S
SHEBOYGAN      CLEAR     51  49  92 NW5       30.17F
WEST BEND      CLEAR     50  46  87 CALM      30.17F
JUNEAU         CLEAR     53  49  87 CALM      30.19S
$$

LSZ147-162-240800-
LAKE SUPERIOR

STATION/POSITION TIME  TEMP    WIND        PRES    WAVE
                       AIR SEA DIR/SP/G            HT/PER
                 (UTC) (F)     (DEG/KT/KT) (MB)    (FT/S)
$$

LMZ867-665-643>646-240800-
LAKE MICHIGAN

STATION/POSITION TIME  TEMP    WIND        PRES    WAVE
                       AIR SEA DIR/SP/G            HT/PER
                 (UTC) (F)     (DEG/KT/KT) (MB)    (FT/S)
$$

TC  - TEMPERATURE IN CELSIUS
VSB - VISIBILITY IN STATUTE MILES
WCI - WIND CHILL INDEX
HX  - HEAT INDEX



USA.gov is the U.S. government's official web portal to all federal, state and local government web resources and services.